NGC 6108 (also MCG 6-36-15 and PGC 57734) is a magnitude +14.4 barred spiral galaxy located 419 million light-years away in the constellation Corona Borealis. The galaxy was discovered by French astronomer Edouard Stephan using a 80.01 cm (31.5 inch) reflecting telescope at the Marseille Obser...
NGC 6110 (also PGC 57751) is a magnitude +14.8 spiral galaxy located 423 million light-years away in the constellation Corona Borealis. The galaxy was discovered by French astronomer Edouard Stephan using a 80.01 cm (31.5 inch) reflecting telescope at the Marseille Observatory on the 10th Jul...
NGC 6114 (also MCG 6-36-19 and PGC 57784) is a magnitude +14.3 spiral galaxy located 400 million light-years away in the constellation Corona Borealis. The galaxy was discovered by French astronomer Edouard Stephan using a 80.01 cm (31.5 inch) reflecting telescope at the Marseille Observatory...
NGC 6116 (also MCG 6-36-21, UGC 10336 and PGC 57800) is a magnitude +14.3 spiral galaxy located 404 million light-years away in the constellation Corona Borealis. The galaxy was discovered by French astronomer Edouard Stephan using a 80.01 cm (31.5 inch) reflecting telescope at the Marseille Ob...
NGC 6810 (also ESO 142-35, IRAS 19393-5846 and PGC 63571) is a magnitude +11.4 spiral galaxy located 93 million light-years away in the constellation Pavo. The galaxy was discovered by British astronomer John Herschel using a 47.5 cm (18.7 inch) f/13 speculum reflecting telescope at the Cape of Go...
NGC 6855 (also ESO 185-63 and PGC 64116) is a magnitude +12.9 barred spiral galaxy located 199 million light-years away in the constellation Telescopium. The galaxy was discovered by British astronomer John Herschel using a 47.5 cm (18.7 inch) f/13 speculum reflecting telescope at the Cape of Goo...
Orbital elements:
2014 NB52 PHA, Earth MOID = 0.0455 AU
Epoch 2014 May 23.0 TT = JDT 2456800.5 MPC
M 267.92270 (2000.0) P Q
n 0.70584236 Peri. 115.51298 +0.74131696 -0.53466642
a 1.2492928 Node 279.39461 +0.36546099 +0.82856153
e 0.3718499 Incl. 24.28030 +0.56292756 +0.16618545
P 1.40 H...
The 5 - 11 metre wide asteroid 2009 BD will make a close pass (1.8 Lunar Distances) to the Earth-Moon system on 25th January 2009. See more Orbital elements: 2009 BD Earth MOID = 0.0021 AU Epoch 2008 Nov. 30.0 TT = JDT 2454800.5...
Orbital elements:
2014 MF6 PHA, Earth MOID = 0.0223 AU
Epoch 2014 May 23.0 TT = JDT 2456800.5 MPC
M 340.27492 (2000.0) P Q
n 0.25761125 Peri. 234.30160 +0.81170337 +0.57904708
a 2.4462049 Node 90.19480 -0.50814797 +0.76463876
e 0.6162062 Incl. 4.38363 -0.28796402 +0.28289936
P 3.83 H 20....
The 53 - 120 metre wide asteroid 2014 LX9 will make a close pass (69.5 lunar distances, 0.1787 AU), travelling at 5.90 km/second, to the Earth-Moon system on the 9th July 2014 @ 19:30 UT ±00:28. See moreThe Lunar Distance (LD), the distance between Earth and the Moon, equals 384,401 km, (or 0.00256 AU...
The 28 - 62 metre wide asteroid 2006 VX2 will make a close pass (60.4 lunar distances, 0.1553 AU), travelling at 9.28 km/second, to the Earth-Moon system on the 9th July 2014 @ 03:27 UT ±03:18. See moreThe Lunar Distance (LD), the distance between Earth and the Moon, equals 384,401 km, (or 0.00256 AU)...
NGC 6215 (also ESO 137-46, IRAS 16467-5854 and PGC 59112) is a magnitude +11.5 spiral galaxy located 72 million light-years away in the constellation Ara. The galaxy was discovered by British astronomer John Herschel using a 47.5 cm (18.7 inch) f/13 speculum reflecting telescope at the Cape of Goo...
NGC 6574 (also NGC 6610, IRAS 18095+1458, MCG 2-46-10, UGC 11144 and PGC 61536) is a magnitude +12.0 barred spiral galaxy located 105 million light-years away in the constellation Ophiuchus. The galaxy was discovered by German astronomer Albert Marth using a 121.92 cm (48 inch) speculum reflecto...